Location: Unspecified
(42.2730°N, 83.7130°W)
Time: 11:06:04
(UTC+00:00)

Daily predictions for brighter satellites

Satellite Brightness Start Highest point End
(mag) Time Altitude Azimuth Time Altitude Azimuth Time Altitude Azimuth
Cosmos 2221 2.6 12:01:28 10° N 12:05:42 82° E 12:09:56 10° S
Cosmos 1092 Rocket 4.0 12:01:59 10° NNW 12:08:05 65° W 12:14:14 10° S
ATLAS 3B R/B 3.4 12:01:49 10° WSW 12:08:13 36° NW 12:15:03 10° NNE
USA 215 3.9 12:03:18 10° NE 12:09:09 37° NNW 12:15:00 10° W
CORIOLIS 4.2 12:05:37 10° NNE 12:11:03 88° WNW 12:16:30 10° SSW
Cosmos 1758 Rocket 4.3 22:30:12 10° NNW 22:34:27 57° W 22:38:41 10° S
SAR-Lupe-2 3.5 22:31:43 10° SSE 22:35:17 81° ENE 22:38:53 10° N
SMAP 3.3 22:32:02 10° SE 22:36:30 48° ENE 22:40:59 10° N
Cosmos 1869 4.0 22:36:25 10° SSW 22:40:08 54° W 22:43:52 10° N
SOZ 4.3 22:38:34 10° WSW 22:40:45 50° NNW 22:43:18 10° NE
NOSS 3-3 (C) 4.1 22:36:04 10° SW 22:41:27 70° NW 22:47:45 10° NNE
Cosmos 2084 Rocket 4.4 22:38:35 10° NNW 22:41:39 22° NE 22:44:43 10° E
NOSS 3-4 (A) 4.3 22:35:31 10° NNW 22:41:58 39° NE 22:49:14 10° ESE
NOSS 3-4 (C) 4.3 22:35:41 10° NNW 22:42:03 39° NE 22:49:14 10° ESE
NOSS 3-3 (A) 4.1 22:36:49 10° SW 22:42:12 68° NW 22:48:29 10° NNE
Cosmos 2298 Rocket 4.1 22:37:03 10° SSW 22:42:21 90° W 22:47:42 10° NNE
SJ-11-01 4.4 22:37:59 10° S 22:42:39 82° WSW 22:47:19 10° NNW
ISS -1.7 22:41:16 10° NW 22:43:30 16° N 22:45:45 10° NE
Cosmos 2237 Rocket 2.4 22:39:19 10° NNW 22:44:58 82° WSW 22:50:34 10° SSE
Cosmos 1437 Rocket 3.4 22:47:07 10° N 22:50:25 30° ENE 22:53:44 10° SE
BREEZE M DEB (TANK) 4.0 22:50:10 10° W 22:52:43 34° SSW 22:58:10 10° SE
Cosmos 405 Rocket 2.9 22:50:59 10° S 22:54:35 49° E 22:58:15 10° NNE
Helios 1A 3.5 22:52:03 10° NNE 22:55:55 37° E 22:59:45 10° SSE
USA 234 3.5 22:49:42 10° NE 22:56:13 71° NW 23:02:42 10° WSW
Cosmos 1606 3.6 22:54:41 10° SSW 22:58:11 49° W 23:01:44 10° N
AQUARIUS 4.1 22:56:11 10° SSE 23:00:35 64° ENE 23:05:02 10° N
CZ-2D R/B 4.4 22:57:29 10° S 23:01:02 45° W 23:04:36 10° NNW
Cosmos 1666 3.5 23:05:56 10° NNE 23:08:54 25° ENE 23:11:50 10° SE
Cosmos 1634 Rocket 4.2 23:03:03 10° N 23:09:22 81° W 23:15:41 10° S
Cosmos 2344 4.4 23:03:50 10° SSE 23:10:12 27° ESE 23:14:27 16° ENE
CZ-2C R/B 3.9 23:07:15 10° S 23:10:38 43° W 23:14:03 10° NNW
Tiangong -2.0 23:09:02 10° W 23:12:12 73° S 23:14:17 19° ESE
Cosmos 2227 Rocket 2.5 23:07:19 10° SSW 23:12:56 68° WNW 23:18:36 10° NNE
Cosmos 2151 2.9 23:09:35 10° N 23:13:50 63° E 23:18:03 10° SSE
Meteor 1-31 Rocket 2.8 23:10:48 10° S 23:14:28 77° WSW 23:18:10 10° NNW
ADEOS 4.3 23:10:26 10° SE 23:14:56 30° ENE 23:19:27 10° N
CZ-2C R/B 2.7 23:14:57 10° SSW 23:16:11 13° S 23:17:23 10° SE
Cosmos 1953 Rocket 3.7 23:12:35 10° N 23:17:04 78° W 23:21:29 10° S
Cosmos 2263 Rocket 2.5 23:12:03 10° S 23:17:16 43° ESE 23:21:38 14° NE
SL-08 R/B 4.0 23:14:17 14° NE 23:17:34 30° E 23:21:36 10° SSE
Cosmos 1461 3.9 23:14:47 10° NW 23:18:41 46° WSW 23:22:26 10° S
Cosmos 2142 Rocket 4.4 23:13:32 10° N 23:19:40 73° E 23:25:47 10° SSE
SL-8 R/B 4.5 23:20:13 10° WNW 23:24:43 39° N 23:27:11 23° NE
CZ-4B R/B 3.4 23:21:11 10° SSE 23:26:20 73° ENE 23:31:23 10° N
NOSS 2-1 (C) 4.3 23:22:51 10° NW 23:27:10 69° SW 23:33:18 10° SSE
Cosmos 1269 Rocket 4.0 23:22:30 10° NNW 23:27:45 62° ENE 23:32:58 10° SSE
Cosmos 2058 Rocket 3.3 23:26:03 10° SSW 23:30:30 74° W 23:34:58 10° N
COSMO-SKYMED 1 2.6 23:27:36 10° NNE 23:31:54 57° E 23:36:10 10° S
Cosmos 1076 Rocket 3.4 23:28:13 10° N 23:32:36 85° E 23:36:57 10° S
H-2A R/B 3.4 23:30:53 10° SW 23:33:42 23° SSE 23:38:35 12° ESE
Cosmos 1607 4.0 23:27:42 10° SSW 23:34:00 88° WNW 23:39:31 15° NNE
NOSS 2-1 (D) 4.5 23:29:50 10° NW 23:34:23 67° WSW 23:41:00 10° SSE
SL-16 R/B 2.1 23:30:39 10° NNW 23:36:23 82° ENE 23:42:02 10° SSE
Cosmos 1812 3.3 23:33:31 10° SSE 23:36:32 33° ESE 23:36:32 33° ESE
CZ-4B R/B 4.1 23:40:00 27° NE 23:40:00 27° NE 23:42:43 10° N
[s.n.70975] 2.4 23:37:28 10° WSW 23:39:34 65° WSW 23:39:34 65° WSW
Cosmos 1500 2.9 23:36:34 10° N 23:40:06 86° W 23:43:38 10° S
[s.n.70971] 2.4 23:39:06 10° WSW 23:41:21 70° WSW 23:41:21 70° WSW
[s.n.70976] 2.5 23:39:31 10° W 23:41:44 67° WSW 23:41:44 67° WSW
[s.n.70959] 2.5 23:39:32 10° W 23:41:45 67° WSW 23:41:45 67° WSW
[s.n.70928] 2.5 23:39:38 10° W 23:41:52 68° WSW 23:41:52 68° WSW
[s.n.70869] 2.5 23:39:43 10° W 23:41:57 69° WSW 23:41:57 69° WSW
[s.n.70961] 2.5 23:39:42 10° W 23:41:57 68° WSW 23:41:57 68° WSW
[s.n.70963] 2.5 23:39:45 10° W 23:42:00 68° WSW 23:42:00 68° WSW
[s.n.70942] 2.5 23:39:46 10° W 23:42:02 68° WSW 23:42:02 68° WSW
[s.n.70926] 2.5 23:39:46 10° W 23:42:02 69° WSW 23:42:02 69° WSW
[s.n.70957] 2.5 23:39:50 10° W 23:42:06 70° WSW 23:42:06 70° WSW
[s.n.70935] 2.5 23:39:51 10° W 23:42:07 70° WSW 23:42:07 70° WSW
[s.n.70946] 2.5 23:39:51 10° W 23:42:07 69° WSW 23:42:07 69° WSW
[s.n.70966] 2.5 23:39:51 10° W 23:42:08 70° WSW 23:42:08 70° WSW
[s.n.70951] 2.5 23:39:52 10° W 23:42:08 69° WSW 23:42:08 69° WSW
[s.n.70960] 2.5 23:39:53 10° W 23:42:10 70° WSW 23:42:10 70° WSW
[s.n.70950] 2.5 23:39:53 10° W 23:42:09 69° WSW 23:42:09 69° WSW
[s.n.70943] 2.5 23:39:57 10° W 23:42:14 70° WSW 23:42:14 70° WSW
[s.n.70969] 2.5 23:39:58 10° W 23:42:15 69° WSW 23:42:15 69° WSW
[s.n.70958] 2.5 23:40:04 10° W 23:42:23 71° WSW 23:42:23 71° WSW
[s.n.70962] 2.5 23:40:05 10° W 23:42:25 71° WSW 23:42:25 71° WSW
[s.n.70977] 2.5 23:40:06 10° W 23:42:26 71° WSW 23:42:26 71° WSW
Cosmos 2279 Rocket 4.3 23:36:29 10° NNW 23:42:41 68° W 23:48:50 10° S
NOSS 8 (A) 4.4 23:39:24 10° SSW 23:43:35 81° SE 23:44:29 47° NE
USA 276 4.5 23:48:04 10° S 23:48:10 11° S 23:48:10 11° S
ATLAS 5 CENTAUR R/B 4.4 23:45:19 10° WNW 23:50:04 29° WSW 23:55:36 10° S
Cosmos 44 3.6 23:45:09 10° NNW 23:50:24 50° NE 23:52:10 35° ESE
Hubble Space Telescope 3.3 23:49:51 10° SSW 23:51:09 11° S 23:52:26 10° SSE
Cosmos 1092 Rocket 4.3 23:47:12 10° SSE 23:52:52 41° E 23:55:35 27° NE
Cosmos 1943 3.7 23:48:58 10° N 23:54:08 36° ENE 23:54:15 36° ENE
Lacrosse 4 Rocket 3.7 23:52:41 10° N 23:53:24 13° N 23:53:24 13° N
